{"data":{"norad_id":58179,"intl_designator":"2023-167E","name":"STARLINK-30819","alt_names":[],"object_type":"PAYLOAD","status":"ACTIVE","operator":null,"country":"US","launch_date":"2023-10-30","launch_site_code":"AFETR","launch_vehicle":null,"mission":null,"orbit_class":"UNKNOWN","rcs_meters":null,"size_class":null,"mass_kg":null,"dimensions":null,"purposes":["comms"],"wikipedia_slug":null,"has_3d_model":false,"image_url":null,"decayed_at":null,"tle_current":{"epoch":"2026-05-25T04:24:21.889152Z","epoch_age_seconds":55339,"freshness":"FRESH","line1":"1 58179U 23167E   26145.18358668 -.00002637  00000+0 -86310-4 0  9993","line2":"2 58179  43.0044  71.4221 0001273 271.3673  88.7033 15.27591209142687","mean_motion":15.27591209,"eccentricity":0.0001273,"inclination_deg":43.0044,"raan_deg":71.4221,"arg_perigee_deg":271.3673,"mean_anomaly_deg":88.7033,"bstar":-8.631e-5,"rev_number":14268,"period_min":94.266057012901,"perigee_km":482.14210774909,"apogee_km":483.88895718385,"semimajor_km":6861.1525324665,"source":"CELESTRAK","updated_at":"2026-05-25T13:38:18.568554Z"}}}